Погода в Перми

Погода в Перми : погода сейчас, прогноз погоды и архив. Всё, что Вы хотите узнать о погоде в Перми!

Хотите узнать прогноз погоды в Перми? Тогда Вам сюда: Погода в Перми

Поиск расширенной информации на нашем сайте:

Полезная информация:

Другие новости

Новости СМИ2

Главная страница сайта

Новости сайта

03.07.2017

Напоминаем, что на нашем специализированном сайте Метеоцентр.Азия вы можете получить высокодетализированные автоматические прогнозы погоды по пунктам России, СНГ и мира в авиационном формате (включающие направление и скорость ветра, видимость, явления погоды, количество и форму облачности, нижнюю и верхнюю границу облачности).

Рекомендуем:

Погода в Перми - сегодня

Время (UTC), дата Ветер
(°,м/с) 
Видим.   Явления Облачность Т
(°С)
Тd
(°С)
f(%) Тe
(°С)
Pmin
(гПа)
dP
(гПа)
Po
(мм)
O2
(г/м3)
Тmin Tmax R s Состояние
почвы
03 19.03.19 тихо ()   20000 м    ясно 
-7.9 -9.8 86 -8  1028.7  -0.2  755  314  -8.2      59  равномерный
мокрый или
старый снег
100% 
06 19.03.19 тихо ()   20000 м    ясно 
+3.2 -8 44 +3  1027.7  0.1  755  301           
09 19.03.19 340 (С) 20000 м    1/0 верхняя 
[Ci fib]
+7.9 -12.1 23 +9  1026.7  -0.7  754  296           
12 19.03.19 230 (ЮЗ) 20000 м    3/0 верхняя 
[Cc]
+9.3 -13.2 19 +10  1025.8  -0.8  754  295           
15 19.03.19 160 (Ю) 20000 м    1/0 верхняя 
[Ci fib]
+1.5 -12.3 35 +2  1026.1  -0.3  753  303    +10.1       
18 19.03.19 140 (ЮВ) 20000 м    3/0 верхняя 
[Cs]
-1.2 -13.1 40 -2  1025.8  -0.5  753  306           
21 19.03.19 170 (Ю) 20000 м    ясно 
-1.8 -13.4 41 -1  1025.1  -0.5  752  306           
00 20.03.19 170 (Ю) 20000 м    ясно 
-4 -12.4 52 -5  1024.5  -0.8  752  309           
03 20.03.19 160 (Ю) 20000 м    8/0 верхняя 
[Cs]
-2.7 -11.2 52 -2  1023.6  -0.8  751  307  -4.1      58  равномерный
мокрый или
старый снег
100% 
06 20.03.19 180 (Ю) 20000 м    6/0 верхняя 
[Ci fib]
+3.3 -5.6 52 +3  1021.9  -1.2  750  299           
09 20.03.19 210 (ЮЗ) 20000 м    9/9 2000 м средняя 
[Ac As]
+6.9 -2.8 50 +6  1020.5  -1  750  295           
12 20.03.19 230 (ЮЗ) 20000 м    10/10 2000 м 
[Ac As]
+6 -2.6 54 +5  1019.8  -0.8  749  296           
15 20.03.19 280 (З) 20000 м    10/10 2000 м 
[As trans]
+3.9 -1.3 69 +3  1019.7  -0.8  749  298    +7.4       
18 20.03.19 230 (ЮЗ) 10 км  слаб. дождь  10/10 2000 м 
[Ns]
+3.1 -1.6 71 +3  1019.4  -0.4  749  298           
21 20.03.19 190 (Ю) 4000 м  слаб. снег{дождь}  10/10 600 м 
[Ns]
+0.7 -0.8 90 +1  1018.8  -0.8  748  301           
00 21.03.19 140 (ЮВ) 2000 м  снег{дождь}  10/10 600 м 
[Ns]
+0.1 -1.2 91 +1  1017.2  -1.6  747  301           
03 21.03.19 220 (ЮЗ) 0500 м  сильн. снег [диам. отлож. мокр. снега 11 мм]  10/10 200 м 
[Frnb|Ns]
+0.1 -1 92 +1  1016.4  -0.8  746  301  -0    59  равномерный
мокрый или
старый снег
100% 
06 21.03.19 230 (ЮЗ) 4000 м  слаб. снег [диам. отлож. мокр. снега 11 мм]  10/10 200 м 
[Frnb|Ns]
+1 -0.3 91 1016.7  0.4  746  300           
09 21.03.19 240 (ЮЗ) 20000 м  в посл. час дождь{снег}  10/10 300 м 
[Frnb|Ns]
+1.5 -0.3 88 +1  1017.4  0.7  747  299           
12 21.03.19 240 (ЮЗ) 20000 м  {ливн. осадки, снег}  9/8 1000 м кучево-дожд., средняя 
[Cb calv|Ac trans]
+2.8 -0.9 77 +2  1017.2  0.1  747  298           
15 21.03.19 170 (Ю) 20000 м    10/6 1000 м средняя 
[Sc|As trans]
-0.3 -2.2 87 1017.9  0.5  747  302    +3.3     
18 21.03.19 130 (ЮВ) 20000 м    9/9 2000 м средняя 
[Ac trans]
-0.1 -2.1 86 +1  1018.1  0.2  748  302           
21 21.03.19 160 (Ю) 20000 м    10/10 2000 м 
[Ac und]
-0.8 -2.3 90 1017.8  -0.4  747  302           
00 22.03.19 160 (Ю) 20000 м    10/9 2000 м средняя, верхняя 
[Ac As|Cs]
-1.2 -2.6 90 -1  1017  -0.8  747  302           
03 22.03.19 160 (Ю) 20000 м    8/6 2000 м средняя, верхняя 
[Ac trans|Cs]
-1.2 -2.5 91 -1  1016.3  -0.6  746  302  -1.4      57  равномерный
мокрый или
старый снег
100% 
Время (UTC), дата Ветер
(°,м/с) 
Видим.   Явления Облачность Т
(°С)
Тd
(°С)
f(%) Тe
(°С)
Pmin
(гПа)
dP
(гПа)
Po
(мм)
O2
(г/м3)
Тmin Tmax R s Состояние
почвы

Для получения пояснительной информации подведите курсор к названию столбца.

ПОГОДА в Перми - архив

Всё, что Вы хотите узнать о погоде в Перми - удобно и подробно!

Выберите нужную дату (начиная с 1 января 2018* года) и нажмите кнопку "Найти".
Будут отображены архивные сводки погоды по пункту Пермь, начиная с указанной даты.


Отображать данные в формате CSV (для использования в таблицах Excel)


Внимание! Наш архив погоды предназначен исключительно для личного некоммерческого использования в познавательных целях. Если Вам необходимы официальные справки о состоянии погоды (для производственных, юридических, коммерческих и т.п. целей), обращайтесь в органы Росгидромета.

*Примечание: данная дата относится к архиву по метеостанциям СССР (Россия, СНГ, Балтия).
Архив по метеостанциям Зарубежной Европы и Азии (кроме Китая) хранится 10 дней, по другим регионам земного шара (Китай, Африка, Америка, Австралия, Океания) - 1 день.

Пермь - район местоположения метеостанции


Название, широта, долгота, высота метеостанции:
Пермь (город) 58°ш. 56.3°д. 171 м над ур. моря [Российская Федерация]

Дополнительная информация

В oтличие oт бoльшинства пoгoдных сайтoв мы публикуем пoдрoбную метеoинфoрмацию в детальнoм прoфессиoнальнoм фoрмате.

Характеристики температуры и влажнoсти вoздуха измеряются на высoте 2 м в тени вдали oт зданий и деревьев.
Скoрoсть ветра измеряется на высoте 10 м (на урoвне рoста челoвека скoрoсть ветра ниже в 1.5-2 раза). Если метеoстанция нахoдится в гoрoде или в лесу, тo скoрoсть ветра занижена на 2-4 м/с пo сравнению с oткрытым местoм. Скoрoсть ветра над акватoриями крупных рек и oзёр, а также на вершинах хoлмoв на 2-5 м/с выше, чем в oбычных услoвиях.
Атмoсфернoе давление в разных тoчках местнoсти мoжет значительнo oтличаться oт давления на метеoстанции, в зависимoсти oт услoвий рельефа (при пoдъёме на 10 м давление пoнижается примернo на 1 мм рт.ст.).